Theta_e
338 339 339 340 340 341 341 340 339 338 337 336 336 336 336 337 337 337 336 336 335 333 334 336 337 336 334 333 332 332 332 332 331 330 329 329 328 326 325 324 323 321 316 309 304 302 302 302 301 300 300 300 300 300 300 299 299 299 299 299 298 299 300 303 306 306 305 304 303 303 301 299 298 297 297 296 296 296 297 297 297 297 296 296 296
338 338 339 340 340 340 341 340 340 338 338 337 337 336 336 337 337 337 336 337 334 333 335 337 337 335 334 333 332 332 332 331 330 330 329 328 327 325 324 323 321 318 312 305 302 301 301 301 300 300 300 300 300 299 299 299 299 299 298 298 298 298 299 301 304 304 304 303 301 300 299 297 297 297 296 296 296 297 297 297 297 296 296 296 296
337 338 339 339 339 340 340 340 340 339 338 337 336 337 337 337 337 337 337 337 334 333 335 337 337 336 334 333 332 332 332 331 330 329 328 327 325 325 324 322 319 314 307 302 300 300 300 300 300 300 300 299 299 299 299 299 299 298 298 298 298 299 298 299 301 301 300 300 299 298 298 297 297 296 296 296 296 297 297 297 296 296 296 296 297
337 339 339 339 339 339 339 339 340 340 339 338 337 337 337 337 337 337 337 336 333 333 336 337 337 336 335 333 332 332 332 331 330 329 328 327 325 324 324 321 316 309 303 300 300 300 300 300 300 300 299 299 299 299 298 298 298 298 298 298 298 298 298 298 298 299 298 298 298 298 298 297 297 296 296 297 297 297 297 297 296 297 297 297 298
338 339 339 338 338 338 339 339 339 340 340 338 337 337 337 337 337 337 338 336 333 334 336 337 336 336 335 333 332 332 331 330 329 328 328 326 325 324 323 319 311 304 301 300 300 300 300 299 299 299 299 299 298 298 298 298 298 298 298 298 298 298 298 298 298 298 298 298 298 298 297 297 296 296 296 297 297 297 296 297 297 297 298 298 298
339 339 339 338 338 338 339 339 339 339 340 339 338 338 337 338 337 337 337 335 333 335 336 336 335 336 335 333 332 332 331 330 329 328 327 326 324 324 322 315 307 302 300 300 300 299 299 299 299 299 299 298 298 298 298 298 297 297 297 297 298 297 298 298 298 298 298 298 298 298 297 297 296 296 297 297 297 296 296 297 297 298 298 298 299
339 338 339 338 338 339 339 339 339 339 340 339 338 338 338 338 338 338 338 334 333 335 336 335 335 336 335 334 333 332 331 330 329 328 327 325 324 323 320 311 304 301 299 299 299 299 299 299 298 298 298 298 298 298 297 297 297 297 297 297 297 297 298 298 298 298 298 298 298 297 297 297 296 297 297 296 297 297 296 297 298 298 298 298 299
339 339 339 338 338 338 338 339 339 339 340 339 339 338 338 338 338 338 337 334 334 336 335 335 336 336 335 334 332 332 331 330 328 327 326 325 324 322 316 307 302 300 299 299 299 299 299 298 298 298 298 297 298 297 297 297 297 297 297 297 297 297 298 298 298 298 298 298 297 297 296 296 296 297 297 297 297 298 297 297 298 298 298 299 299
339 339 339 338 339 338 339 339 339 339 339 339 339 338 338 338 338 338 336 334 334 336 335 336 336 336 335 333 332 332 331 330 328 327 326 324 323 321 313 305 301 300 299 299 299 299 299 298 298 298 298 297 297 297 297 297 297 297 297 297 297 297 297 297 297 297 298 298 297 297 296 296 297 297 297 297 297 297 297 297 298 298 298 299 299
339 339 338 338 338 339 339 339 339 339 339 339 339 338 338 338 339 337 335 334 335 336 335 335 336 335 334 333 332 331 331 329 328 327 325 324 323 319 311 303 301 299 299 299 299 299 299 298 298 298 297 297 297 297 297 297 297 297 296 297 297 297 297 297 297 297 298 297 297 296 296 297 297 297 297 297 296 297 297 298 298 298 298 299 299
339 339 338 337 338 338 338 339 339 339 338 338 338 337 337 338 339 337 334 334 335 336 335 335 335 335 333 333 332 331 331 330 328 326 324 324 322 317 308 302 300 299 299 299 299 298 298 298 298 297 297 297 297 297 297 297 297 297 296 296 296 296 297 297 297 297 297 297 297 296 296 297 297 296 297 296 297 297 298 298 298 298 299 299 300
339 339 338 337 338 338 338 338 339 338 337 337 338 337 336 338 338 336 335 334 334 335 336 335 335 334 333 332 333 331 330 330 328 325 324 324 321 315 306 301 300 299 299 299 299 298 298 298 298 298 298 297 297 297 297 297 297 296 296 296 296 296 296 296 297 297 297 297 297 296 296 297 297 297 296 296 297 298 298 299 299 298 298 299 300
338 338 338 338 338 338 337 338 338 338 337 337 337 337 336 337 338 337 335 334 334 334 335 334 335 334 332 332 333 332 331 330 328 325 324 323 319 312 305 301 299 299 299 299 298 298 298 298 298 298 298 297 297 297 297 297 296 296 296 296 296 296 296 296 296 297 297 297 296 296 296 296 297 297 296 296 297 298 299 300 299 298 298 298 299
338 338 338 338 338 337 337 337 338 337 337 337 337 337 336 337 338 337 336 335 335 335 334 334 334 334 333 333 333 332 331 330 327 324 324 324 318 310 304 301 299 299 299 298 298 298 298 298 299 299 298 297 297 297 296 296 296 296 296 295 296 296 296 296 296 297 297 297 296 296 296 296 297 297 296 296 297 298 299 299 299 298 298 298 298
338 338 338 338 337 337 337 338 338 337 337 337 337 337 337 337 337 337 336 336 336 335 334 333 333 332 333 334 333 331 331 330 327 325 325 324 318 308 302 300 299 299 299 298 298 298 299 300 301 300 299 297 297 297 296 296 296 295 295 295 295 295 296 296 296 296 297 297 296 296 296 297 297 297 296 297 297 298 298 298 298 298 298 298 299
338 338 338 337 337 337 337 338 338 338 338 337 337 337 337 337 336 335 335 336 337 336 334 333 332 332 333 334 332 331 330 329 327 325 325 325 320 309 302 300 300 299 299 298 298 298 299 302 303 301 299 298 297 297 297 296 296 295 295 295 295 295 295 295 296 296 297 297 296 296 296 297 297 297 297 297 297 298 298 298 299 298 298 299 300
338 338 338 337 337 337 338 338 338 338 337 337 337 337 337 337 335 333 334 335 337 336 334 333 332 332 332 333 332 330 330 329 327 325 325 325 322 313 304 300 300 299 299 299 298 298 300 303 303 301 299 299 298 297 297 296 295 295 295 295 295 295 295 295 296 296 296 296 296 296 296 297 297 297 296 297 298 298 298 299 299 299 299 300 301
337 338 338 338 337 337 338 338 338 338 338 338 338 337 338 337 334 332 333 335 336 336 335 333 332 331 332 333 332 330 330 329 327 325 325 325 324 319 309 303 301 299 299 299 299 299 301 304 303 300 299 299 298 297 297 296 295 295 295 295 295 295 295 295 295 296 296 296 296 296 297 297 297 297 297 297 297 298 298 298 299 298 299 300 300
337 337 337 338 338 338 338 339 339 339 338 338 338 338 338 337 334 332 333 335 337 336 335 333 333 332 332 333 332 330 329 328 326 325 325 324 325 322 314 306 302 300 299 300 299 299 302 304 302 301 300 299 298 297 297 296 295 295 295 295 295 295 295 295 295 296 296 296 296 296 297 297 297 297 297 297 297 298 298 298 298 298 298 299 300
337 337 338 338 338 339 339 339 339 339 338 338 338 338 337 337 336 333 331 332 335 336 335 334 334 333 333 333 332 330 329 327 325 325 324 324 325 323 317 309 303 300 300 299 299 300 303 304 302 301 300 299 298 297 297 296 296 296 296 295 294 295 295 295 295 295 296 296 296 296 297 298 297 297 297 297 297 298 298 298 298 298 298 298 299
337 338 338 339 339 339 339 339 339 339 339 338 338 338 337 336 335 334 332 331 332 333 334 335 335 333 333 332 332 330 328 327 326 325 324 324 324 324 319 311 304 302 300 299 300 302 305 304 302 300 300 299 298 298 297 297 297 297 297 296 296 296 295 295 295 295 296 296 296 296 297 298 298 298 298 298 298 298 298 299 299 298 298 298 299
338 338 338 339 339 339 339 339 339 339 338 338 337 337 337 337 336 334 333 332 333 334 335 335 334 333 332 332 331 330 328 326 326 325 324 324 324 324 321 314 309 306 302 300 302 305 305 303 301 300 299 299 299 298 298 299 300 300 299 299 298 297 296 295 295 295 295 296 296 296 297 298 299 299 299 299 299 299 299 299 298 298 299 299 298
338 338 338 339 339 339 339 339 339 339 339 339 338 336 336 336 334 333 332 332 333 334 335 334 334 333 332 331 331 330 328 327 326 325 324 324 324 324 321 316 313 308 302 302 305 305 304 302 301 300 300 300 299 298 299 301 302 302 302 302 301 299 297 295 294 295 295 295 296 296 297 298 299 300 299 300 300 299 299 299 298 299 300 299 299
338 338 339 339 339 339 339 338 338 339 338 338 338 337 335 333 332 332 332 332 332 333 333 334 333 333 332 331 331 330 328 327 326 326 325 324 324 323 320 317 314 308 302 303 306 305 303 303 301 300 301 300 299 299 300 302 303 303 303 303 302 300 298 295 294 294 295 295 296 296 297 298 299 299 299 299 299 299 299 298 299 300 300 300 299
337 338 338 338 338 338 338 338 337 338 337 337 337 336 334 334 333 333 333 332 332 332 333 333 334 333 332 331 330 330 329 328 326 325 324 324 323 322 320 318 315 308 304 304 307 306 304 303 302 301 301 300 300 300 301 302 303 303 304 304 303 302 299 296 295 294 294 295 296 296 297 298 298 298 298 298 299 299 299 299 299 300 300 300 300
337 338 337 337 337 337 337 337 336 336 336 335 334 333 333 333 335 335 333 332 331 332 334 334 334 333 332 331 330 330 329 329 327 326 325 324 323 321 319 317 315 310 307 307 308 307 305 304 303 303 302 301 301 301 302 302 303 304 304 305 304 302 299 297 295 294 294 294 295 296 297 298 298 298 298 299 300 300 300 299 299 300 300 300 300
337 337 336 336 336 337 336 336 336 336 335 334 334 333 333 334 335 335 334 333 331 332 333 334 334 333 332 331 330 330 329 329 328 326 325 324 322 320 318 316 314 311 309 309 309 308 306 304 304 304 303 303 302 302 303 304 304 305 305 304 303 301 299 297 295 294 294 294 295 296 297 298 298 299 299 300 300 300 300 300 299 300 300 300 300
337 336 336 336 336 336 335 335 335 336 336 335 334 334 334 335 334 334 334 333 331 330 331 333 333 333 332 331 330 329 329 329 328 327 326 325 323 321 319 316 314 312 311 310 309 308 306 305 304 304 304 304 303 302 303 304 305 305 304 303 302 301 298 296 294 294 294 294 295 296 298 298 298 299 300 300 300 300 300 300 300 300 300 300 300
336 337 336 336 335 335 335 335 335 336 336 335 335 335 334 335 334 332 332 332 331 330 330 332 332 332 331 331 329 328 328 328 327 327 326 325 324 323 321 319 316 314 313 311 309 307 306 305 304 304 305 305 304 303 303 304 304 304 303 301 301 300 298 295 294 295 296 295 295 296 298 299 299 300 300 301 301 300 300 300 300 300 300 301 301
336 336 335 335 335 334 334 335 335 335 335 335 335 335 335 334 334 332 332 332 331 329 330 330 329 329 329 329 328 327 327 327 327 327 326 325 324 324 323 321 318 315 313 311 308 307 306 306 305 304 304 305 304 303 303 304 304 304 302 301 301 300 297 295 296 297 297 296 295 296 298 299 300 300 301 301 301 300 300 301 301 301 301 301 301
335 335 335 335 335 335 335 335 334 335 334 335 335 334 334 334 333 332 332 332 332 331 330 329 327 327 329 329 328 327 326 326 326 326 326 325 325 324 322 319 317 315 313 310 308 307 307 306 306 305 304 304 304 303 302 303 304 304 303 302 301 300 298 297 297 298 299 298 297 296 297 299 300 301 301 301 301 301 301 301 301 301 301 301 301
335 335 335 336 336 335 335 335 335 335 335 335 335 334 333 332 332 331 330 330 330 330 329 328 327 327 328 328 327 327 326 325 325 326 326 325 324 322 320 317 316 315 313 311 309 308 307 307 306 305 304 303 302 302 301 301 302 303 303 303 302 301 300 299 299 300 300 300 299 298 298 299 300 301 302 302 301 301 301 301 301 301 301 301 301
335 335 335 335 336 335 336 335 336 336 335 335 334 334 333 333 332 331 329 328 327 328 327 327 327 327 326 325 325 325 325 324 324 324 324 323 321 319 318 316 316 315 313 311 309 308 308 308 307 306 304 303 301 301 302 302 302 302 302 303 302 301 300 300 300 301 301 301 301 300 299 298 298 299 301 301 301 301 301 301 301 301 301 301 300
334 334 335 335 335 335 335 335 336 335 335 335 334 334 333 332 332 332 330 327 325 325 325 324 324 325 324 323 322 321 321 321 322 322 322 321 319 318 317 315 314 313 312 311 309 308 308 307 307 306 305 303 302 302 303 303 303 303 302 302 302 301 300 299 300 301 302 301 301 301 299 297 296 297 298 300 301 301 301 301 301 301 301 301 300
333 333 334 334 334 334 334 335 334 334 334 333 333 332 332 331 331 331 330 328 326 325 324 322 323 323 322 321 320 319 319 320 320 321 320 319 318 317 316 314 313 312 312 310 309 308 308 308 307 305 304 303 303 303 303 303 303 303 303 302 301 300 299 298 300 301 302 301 301 301 300 298 296 296 297 300 301 301 301 301 302 301 301 301 300
330 330 331 332 332 333 332 332 332 332 332 332 331 330 330 330 330 329 327 326 326 325 324 323 323 322 321 320 320 319 318 319 319 319 319 318 318 317 316 315 314 313 312 311 310 309 309 307 305 304 303 304 304 305 304 303 303 302 302 300 298 298 297 297 300 301 301 301 300 300 300 298 296 296 297 299 301 301 301 301 302 302 302 301 300
328 329 329 329 329 330 329 328 328 329 330 330 329 327 326 326 326 326 325 325 325 325 324 323 323 322 320 320 319 318 317 318 318 318 318 318 318 317 316 315 314 312 311 311 310 309 308 307 304 303 303 303 304 305 304 303 302 302 300 297 296 296 295 296 299 300 301 300 300 300 299 297 295 295 296 298 300 301 301 301 302 302 302 302 300
326 327 327 327 327 327 327 326 326 327 327 327 327 327 325 324 323 323 324 325 325 325 324 324 323 322 322 320 319 318 317 317 316 316 317 317 316 315 314 312 311 310 310 310 309 308 307 305 304 303 303 304 305 304 303 303 302 300 298 296 295 294 294 295 297 299 300 300 300 299 298 296 295 295 296 297 299 300 301 302 302 302 302 301 300
325 325 325 326 326 326 326 326 325 324 324 324 325 325 324 323 323 323 323 324 325 325 325 325 324 323 322 321 320 319 318 317 316 316 316 316 315 314 313 311 310 309 308 308 307 306 305 304 304 304 303 303 302 301 300 300 299 298 297 296 295 294 294 294 295 296 297 297 298 297 296 295 295 295 296 298 299 300 301 302 302 302 302 301 300
323 323 323 323 324 324 324 324 323 322 322 323 323 323 322 322 322 323 324 324 324 323 324 324 323 323 322 321 320 320 320 319 318 317 316 317 316 314 312 311 310 310 309 307 305 304 303 302 302 300 299 298 297 297 297 296 296 296 295 295 294 294 293 293 293 294 294 295 295 295 295 294 294 294 297 299 300 301 302 302 302 303 302 301 300
321 321 322 321 321 321 321 320 320 321 323 323 323 323 323 322 322 323 323 323 323 323 322 322 322 322 321 321 320 320 320 320 319 318 317 317 316 314 313 313 312 311 309 306 304 301 299 299 298 297 297 297 297 296 295 295 294 294 294 294 294 293 293 293 293 293 293 293 294 294 294 293 293 294 297 299 301 301 302 302 302 302 302 301 300
321 321 322 321 321 320 320 320 320 322 322 322 322 323 323 322 322 323 323 323 322 322 321 320 320 320 319 319 318 318 318 319 318 318 317 316 315 314 314 314 313 311 308 305 301 299 297 297 296 297 298 298 297 296 295 294 294 294 294 294 293 293 293 293 293 293 293 293 293 293 293 293 293 294 297 300 301 301 302 302 302 302 301 301 300
323 323 322 322 321 321 321 321 321 321 321 321 321 322 321 321 321 322 322 321 320 320 319 319 318 318 317 316 316 315 316 317 317 317 316 315 314 313 313 312 311 309 305 302 299 297 297 297 297 299 300 299 299 297 296 294 294 294 294 294 294 294 294 294 294 294 293 293 293 293 293 293 294 294 297 300 301 301 302 302 302 302 301 301 300
323 323 322 322 321 320 320 321 321 322 321 321 321 320 320 320 320 320 320 319 318 318 318 318 317 316 316 315 314 314 315 315 315 315 315 314 313 312 312 311 309 307 303 300 298 297 297 297 298 300 300 300 300 299 298 296 295 295 294 294 294 294 294 294 294 294 294 294 293 294 294 294 294 294 296 299 301 302 302 302 302 302 302 301 301
322 322 322 321 320 320 320 320 321 321 321 321 321 320 320 319 319 319 319 318 317 317 317 317 316 316 316 316 315 315 315 315 315 315 314 313 312 312 311 310 308 306 302 300 298 297 297 297 298 299 300 300 300 299 299 298 297 297 296 295 295 294 294 294 294 294 294 294 294 295 295 295 294 294 296 299 301 302 302 302 302 302 301 301 301
322 322 322 321 320 320 319 320 320 320 320 320 320 320 320 319 318 317 317 317 316 316 316 316 316 315 315 315 316 316 316 316 315 314 313 312 312 312 311 309 308 307 305 302 301 299 298 298 298 298 299 300 301 300 300 299 299 298 298 297 296 296 295 294 294 294 294 295 297 297 297 297 296 296 297 300 302 302 302 302 302 301 301 301 301
321 321 320 320 320 320 319 319 319 319 319 319 319 318 318 318 317 317 316 316 316 316 316 316 316 315 315 315 315 316 316 315 314 314 313 312 312 311 310 309 309 308 307 306 304 303 301 300 298 298 299 300 300 300 300 300 299 299 299 298 298 297 296 295 294 294 295 297 298 299 299 299 298 298 299 301 302 302 302 301 302 302 301 301 301
319 319 319 319 319 319 319 319 319 318 318 317 317 316 316 316 317 317 317 316 316 316 315 315 315 315 315 315 315 315 315 314 313 313 312 312 312 311 310 309 309 308 308 307 307 306 305 304 302 301 300 300 301 301 301 301 301 300 300 300 299 298 298 296 295 295 297 299 299 299 300 300 300 300 301 301 301 301 301 301 301 301 301 301 301
316 316 317 318 318 319 319 319 319 318 317 317 316 316 315 315 315 316 315 316 316 316 315 315 314 314 314 315 315 315 314 314 313 313 312 312 311 310 309 308 307 307 306 306 306 306 306 305 304 304 303 303 302 302 302 302 301 301 301 301 300 300 299 298 297 296 297 299 300 299 300 300 301 301 301 301 301 301 301 301 301 301 301 301 301
314 314 314 315 316 317 318 319 318 318 318 317 316 316 315 315 315 314 314 315 315 314 314 314 314 313 314 314 314 314 314 313 313 312 311 310 309 308 307 306 306 305 305 304 304 304 304 304 303 303 302 302 302 302 301 301 301 301 300 300 300 300 300 300 299 297 297 298 300 300 300 300 300 301 301 301 301 301 301 301 300 300 301 301 301
313 313 314 314 315 316 317 317 317 317 317 316 315 315 315 314 314 314 313 313 313 313 313 313 313 313 313 313 313 313 313 313 312 311 309 308 307 307 306 306 306 306 305 304 304 303 302 302 302 302 302 302 301 301 300 299 299 298 297 297 297 297 298 299 300 299 298 297 298 299 300 300 300 301 301 301 301 301 301 300 300 300 300 301 301
Wind_Speed
47 50 53 52 49 48 49 46 43 43 43 41 39 39 37 35 33 31 29 27 27 26 25 23 21 18 18 18 16 15 14 14 14 14 14 14 14 13 13 12 12 12 12 13 13 13 13 12 12 11 10 10 9 9 9 9 9 10 10 10 11 12 13 14 14 14 12 11 12 13 13 13 13 14 14 14 14 13 13 14 16 17 16 15 15
48 50 51 52 51 50 49 48 45 43 43 41 40 40 38 35 33 32 30 28 27 27 25 24 21 19 19 18 16 15 14 14 14 15 14 14 13 13 12 12 12 12 13 13 14 14 13 12 12 11 11 10 10 10 10 10 10 10 10 10 10 10 11 12 12 12 11 10 10 11 11 11 12 13 13 12 12 11 12 12 13 14 14 13 13
49 50 50 51 51 50 49 48 47 45 43 42 42 41 39 36 33 32 31 29 28 28 26 23 21 20 19 19 17 15 15 15 15 15 14 13 13 12 12 12 11 12 13 14 14 14 13 13 12 11 11 10 10 10 10 10 11 10 10 10 9 9 9 9 9 9 9 9 9 10 10 10 11 12 12 11 11 11 11 11 11 12 12 11 12
50 50 50 50 49 49 50 49 48 47 45 43 43 42 40 36 34 33 31 30 30 29 26 24 22 21 20 19 17 16 16 15 15 15 13 12 12 12 12 12 12 13 14 15 15 14 14 13 12 11 11 11 10 10 10 10 11 11 10 10 9 8 8 8 8 7 7 8 8 9 10 10 10 10 10 10 10 10 10 9 8 9 11 11 12
49 48 47 48 49 50 50 49 48 48 46 44 44 44 42 37 34 33 32 31 31 30 27 25 25 23 22 20 18 16 16 15 15 15 13 12 12 12 12 12 13 15 16 16 15 14 14 13 12 12 11 11 10 10 10 10 11 10 10 10 10 9 8 8 8 7 7 8 8 8 9 9 9 9 9 8 8 8 8 8 7 7 8 10 12
49 48 46 46 48 50 50 49 48 48 47 46 45 45 43 38 35 34 32 32 32 31 28 27 26 25 23 20 18 16 15 15 16 14 13 13 13 13 12 13 15 16 17 17 16 15 15 14 13 12 11 11 10 10 10 10 11 10 10 11 11 10 9 9 9 8 8 7 7 7 7 7 8 8 8 8 7 6 6 7 8 7 8 9 11
49 49 46 45 47 49 50 49 48 48 49 48 46 46 44 38 35 34 33 33 34 32 29 28 26 25 24 21 18 16 16 17 16 15 14 14 14 14 13 15 17 18 18 17 17 17 16 15 14 13 12 11 10 10 9 10 11 11 11 12 12 11 10 10 9 8 7 6 6 6 6 7 7 7 7 7 7 7 6 7 8 9 10 11 11
49 47 44 45 48 49 50 49 47 49 50 48 47 47 44 39 35 33 33 34 35 33 30 28 27 25 24 22 18 17 17 18 17 16 15 15 15 14 15 16 18 19 19 18 18 17 17 16 15 14 13 12 12 11 10 10 11 12 12 12 12 11 10 10 8 7 6 5 5 6 6 6 6 6 6 6 5 5 7 8 9 11 12 13 14
49 47 45 47 50 49 48 48 48 49 51 48 47 48 45 39 35 32 32 34 35 33 30 28 27 26 24 22 20 19 19 18 17 16 15 15 15 15 16 18 19 20 20 19 19 18 18 17 16 15 14 13 13 12 12 12 12 12 12 12 12 11 10 9 8 7 6 5 5 6 6 6 6 5 5 4 4 4 6 8 9 11 12 14 15
48 47 47 49 50 46 45 47 49 50 50 48 48 49 45 39 34 30 31 33 34 33 31 29 28 27 26 24 22 21 21 19 18 17 16 16 15 15 17 20 20 21 21 20 20 19 18 18 17 15 15 14 13 13 12 12 12 13 13 12 11 11 10 9 8 7 6 6 6 6 6 7 6 5 4 4 4 4 5 7 9 11 13 14 15
44 46 49 49 46 41 42 46 49 48 48 47 48 48 45 39 34 31 31 32 33 34 33 31 30 28 27 25 23 22 21 20 19 18 17 16 15 16 19 21 21 22 21 20 19 19 19 19 17 16 15 15 14 14 13 12 13 14 14 13 12 12 11 9 8 7 6 7 7 7 7 7 7 6 5 4 3 3 4 6 8 10 12 14 15
39 43 45 44 42 41 42 45 47 47 47 47 48 47 44 39 34 33 33 32 32 34 34 33 31 30 29 27 24 23 21 20 19 18 17 16 15 17 20 21 22 22 21 20 20 19 19 18 17 16 15 15 14 14 14 13 13 14 15 14 14 13 12 10 9 7 7 7 8 7 7 7 7 6 5 3 2 3 4 6 8 10 11 13 14
38 40 39 39 42 43 43 44 46 47 47 47 47 45 42 38 35 35 35 33 33 33 34 33 32 30 30 29 27 23 21 21 19 18 17 15 15 18 21 22 21 21 21 21 21 20 19 18 17 16 15 15 15 15 15 14 14 15 15 15 14 14 12 11 9 8 8 8 8 8 8 7 7 6 5 4 2 2 3 5 7 9 11 12 14
39 40 39 40 42 43 43 44 46 47 46 46 45 44 41 38 36 35 35 36 37 35 33 33 33 33 32 30 28 24 22 22 21 19 17 15 15 19 22 22 22 21 21 21 21 21 19 18 16 15 15 16 16 16 16 15 16 16 16 15 15 14 13 11 10 10 9 9 8 8 8 7 7 6 6 4 3 3 4 5 7 9 11 13 15
40 41 41 41 41 42 43 45 46 46 45 44 44 43 41 38 35 35 37 39 39 37 34 32 32 34 33 30 27 24 22 23 22 20 17 15 15 19 22 22 22 22 22 22 21 20 18 17 16 15 16 16 16 16 17 17 17 17 16 15 15 14 14 12 11 10 10 10 9 9 9 9 8 7 6 5 4 4 5 7 8 11 13 15 15
38 40 41 41 41 43 45 45 45 45 45 45 44 43 41 37 34 35 38 41 42 39 33 30 32 34 34 31 28 24 23 24 24 21 18 16 16 19 22 23 23 23 23 23 22 21 19 17 16 16 17 17 16 17 17 18 18 18 17 16 15 15 15 13 12 12 12 11 10 10 10 10 9 8 6 6 5 5 7 8 10 12 14 15 14
38 40 41 41 42 44 45 45 46 45 45 45 45 44 41 37 34 35 38 42 45 42 34 30 32 34 33 33 30 26 25 28 26 23 20 18 17 18 21 23 23 24 25 24 23 23 21 19 17 18 18 18 17 18 18 19 19 18 17 17 16 17 16 14 13 13 13 12 11 11 11 11 10 8 7 7 7 7 8 8 9 12 14 14 14
39 41 42 41 42 43 44 45 45 45 45 45 44 43 40 36 33 33 38 42 43 41 36 31 32 32 33 34 32 27 28 30 28 24 23 20 18 17 19 22 24 25 25 24 23 23 21 18 18 19 19 19 18 19 19 19 19 19 18 17 17 18 17 15 14 14 13 13 12 12 13 12 10 9 8 8 8 8 8 9 10 12 13 13 14
38 40 41 41 41 42 43 44 44 44 44 44 43 40 39 39 34 31 35 39 40 39 37 33 32 32 33 35 33 29 30 31 29 26 24 22 18 17 19 22 25 26 26 25 24 24 21 19 19 20 20 19 18 19 19 18 18 18 18 17 18 17 16 16 15 14 13 13 13 13 14 13 11 10 9 9 10 10 10 10 11 12 13 14 15
36 38 39 40 40 41 42 43 43 43 42 42 41 38 36 38 36 32 32 35 37 40 42 39 35 32 32 35 35 32 31 31 29 26 25 22 19 19 21 24 26 27 26 26 26 25 22 21 21 21 20 19 18 18 18 17 17 18 17 18 18 16 16 16 15 14 13 13 14 14 15 14 13 11 10 10 10 11 10 10 10 11 13 14 15
33 37 39 39 39 40 41 41 41 42 41 39 38 38 38 38 36 34 34 34 34 39 42 42 38 33 30 33 37 35 33 31 29 27 25 23 21 21 22 24 25 25 26 27 26 24 23 22 23 22 21 19 18 18 18 17 17 17 18 17 16 15 16 16 15 15 14 14 14 15 16 16 14 12 11 11 11 11 10 10 10 11 12 14 15
33 36 37 38 39 39 40 40 40 40 40 38 36 36 40 41 36 32 34 37 38 41 44 44 41 35 30 31 36 37 34 32 30 28 26 24 23 21 21 22 22 22 25 27 25 22 21 21 21 21 20 19 19 19 19 18 18 18 17 15 15 16 16 16 16 16 15 15 15 15 16 17 15 14 13 12 11 11 11 11 11 11 11 13 15
32 35 36 37 39 39 38 38 38 38 39 39 37 33 33 37 35 32 35 40 43 46 47 45 41 36 32 32 37 39 36 34 32 30 27 25 23 21 21 20 19 21 25 27 22 19 18 18 18 20 20 19 19 19 19 20 20 19 16 14 15 16 16 17 17 17 16 16 16 16 17 17 17 16 14 13 13 13 13 12 12 11 12 13 15
31 34 36 37 36 36 36 36 38 38 37 38 39 36 32 33 35 35 38 44 47 48 47 44 39 36 34 33 38 41 39 36 35 33 28 26 24 23 22 20 19 21 26 25 20 16 15 15 16 18 19 19 18 18 20 21 21 19 16 15 15 16 17 18 18 18 17 17 16 16 16 17 17 16 15 14 14 14 13 12 12 12 13 14 15
31 33 35 35 34 34 36 37 37 38 37 37 38 38 36 37 39 39 39 43 47 47 46 44 40 36 34 34 37 41 40 37 37 36 31 27 25 24 23 22 21 24 26 25 20 16 14 13 14 17 19 18 18 19 21 21 20 18 17 16 16 17 19 19 19 19 19 18 17 17 16 16 16 16 16 15 14 13 13 13 13 12 14 15 16
31 32 31 32 34 35 36 37 37 37 37 38 38 38 37 38 40 41 38 40 44 45 43 42 39 38 38 35 34 38 40 40 39 38 34 30 27 26 24 23 23 25 26 24 20 16 15 14 15 17 18 19 19 21 22 21 20 19 19 18 18 19 20 21 21 21 20 18 18 17 17 16 16 16 16 15 14 14 15 14 13 13 14 16 18
29 30 30 31 34 36 36 37 37 37 38 38 36 34 35 36 39 43 41 40 43 46 44 40 39 41 42 38 34 36 41 42 41 40 38 34 30 28 27 26 26 27 27 25 22 19 17 17 17 18 19 19 20 22 23 23 21 21 20 20 20 21 21 21 21 21 20 19 18 18 17 17 16 15 15 15 15 16 16 15 14 14 15 17 18
29 30 31 32 34 36 37 36 37 39 41 39 34 31 34 36 40 46 44 37 36 41 43 42 42 42 40 38 36 38 42 43 43 43 42 38 33 31 31 30 29 29 28 28 26 22 19 19 20 21 22 22 22 24 26 25 23 21 20 20 21 22 22 21 21 21 20 19 19 18 17 17 16 16 16 16 16 16 16 14 14 14 16 18 18
29 30 32 34 36 36 35 35 37 40 41 39 34 32 34 35 39 45 43 33 29 35 38 41 44 43 37 33 35 40 43 43 41 40 39 37 33 31 30 30 30 29 28 27 26 25 23 24 25 25 26 25 24 25 27 27 24 21 20 20 22 23 22 22 22 21 19 18 18 18 18 18 18 17 17 16 16 15 15 14 14 16 17 18 17
30 30 32 34 34 33 33 33 36 39 39 36 34 33 35 37 38 39 38 33 29 30 31 35 39 39 31 26 29 34 36 35 34 34 35 34 30 27 26 27 27 27 27 26 27 27 26 26 27 27 27 27 26 27 28 28 25 22 20 21 22 23 23 23 23 21 19 18 18 18 19 19 19 18 18 17 16 15 15 15 15 16 16 16 15
28 29 30 30 29 30 32 32 34 37 37 36 35 35 37 39 39 39 39 37 32 28 27 29 31 30 24 21 23 27 28 27 29 32 33 31 29 27 26 25 24 24 25 27 28 29 29 28 28 27 27 27 27 27 28 28 26 24 22 21 22 23 24 24 23 22 20 19 18 18 19 20 20 19 18 17 16 16 16 15 15 15 15 15 14
23 24 25 27 27 29 31 31 32 35 36 37 38 38 39 40 40 40 40 38 33 28 26 27 27 23 20 19 21 23 24 25 27 30 32 31 30 28 26 24 23 22 23 25 28 29 29 29 28 27 27 28 27 26 26 27 27 26 25 24 24 24 24 24 23 22 21 20 19 19 19 20 20 20 19 18 17 16 16 15 15 15 15 14 14
17 19 23 26 27 29 31 30 31 35 38 39 41 41 41 41 41 40 38 35 32 29 27 27 25 21 17 18 19 20 21 22 24 27 29 29 27 25 24 23 23 23 24 26 29 30 29 28 28 27 27 27 26 24 24 25 27 27 27 27 27 26 24 23 23 24 23 22 21 20 19 19 20 21 20 19 18 17 16 15 14 14 14 13 13
14 17 20 22 24 27 30 32 34 37 39 41 42 42 42 42 42 40 38 36 33 31 30 29 26 22 19 18 18 19 19 19 21 23 25 24 24 24 24 24 24 25 26 28 30 30 29 28 28 28 27 26 25 23 22 23 25 26 28 28 28 27 25 24 25 25 24 23 22 21 19 19 20 21 21 20 19 18 16 15 14 15 14 13 12
14 18 20 21 22 26 29 33 37 40 41 41 42 42 42 43 41 38 37 36 34 33 32 30 27 23 21 19 19 19 19 20 23 25 26 28 29 28 28 29 30 31 31 31 31 31 29 28 28 27 26 26 25 23 22 22 23 24 26 27 27 27 26 25 25 24 23 23 23 21 20 19 20 21 22 22 21 19 17 15 15 15 14 13 12
11 15 18 22 24 27 30 34 37 39 39 40 40 41 43 42 39 36 35 34 32 31 30 29 28 25 22 20 20 21 22 24 26 27 28 29 30 31 32 33 34 34 34 33 33 32 29 29 28 27 26 26 26 24 23 22 23 23 24 25 25 25 26 26 24 23 23 22 22 21 20 20 20 21 22 23 22 20 17 16 16 16 15 14 13
12 14 17 20 23 25 29 32 35 37 38 39 40 40 38 36 35 34 32 30 29 29 30 31 31 29 27 25 24 24 24 25 26 26 26 26 28 30 31 32 32 32 31 31 30 29 28 28 28 27 26 27 26 25 24 24 24 24 23 23 24 25 26 26 25 23 23 23 23 22 21 21 21 22 22 23 22 20 18 17 16 16 15 14 13
12 14 15 16 19 22 26 28 31 35 37 37 36 35 32 31 32 31 28 27 29 30 31 31 31 31 32 31 30 29 29 28 27 27 28 29 29 30 30 30 29 28 26 26 25 25 25 26 26 26 26 26 25 25 25 24 24 24 23 23 23 24 25 26 26 25 25 25 25 23 22 22 23 22 22 22 22 20 19 17 16 16 15 15 13
9 12 13 15 18 21 23 25 29 33 33 32 31 30 29 29 29 26 24 25 28 29 29 30 31 32 34 35 35 34 33 32 31 31 31 30 29 29 29 28 26 25 24 22 22 22 23 24 23 23 23 23 23 23 24 23 23 24 23 23 23 24 25 27 27 27 28 27 26 25 24 24 23 23 22 22 21 20 18 17 16 16 15 15 13
7 9 11 14 17 18 19 22 26 28 28 27 25 25 25 24 24 23 23 23 24 24 25 27 29 31 33 33 34 34 34 33 32 31 28 28 28 28 27 26 25 23 23 22 21 22 22 22 21 21 21 20 20 21 21 21 22 23 22 23 23 24 24 26 27 27 28 27 27 26 26 25 24 24 23 22 20 19 18 16 15 16 15 14 13
3 4 6 8 11 13 15 18 21 21 21 20 19 19 20 20 20 20 20 20 21 21 21 22 23 25 27 28 30 31 31 31 31 29 27 26 26 25 24 22 21 21 21 21 20 21 22 21 20 19 19 19 19 19 20 21 22 22 22 23 23 23 23 24 24 25 26 26 27 27 27 26 25 25 23 21 20 19 18 17 16 16 15 14 13
8 6 4 3 6 8 11 14 15 16 16 16 16 17 17 18 18 18 18 19 19 19 20 20 19 20 21 23 24 27 29 29 29 27 26 24 23 22 20 19 18 19 19 19 19 20 20 20 19 18 18 18 17 17 18 20 21 22 23 23 23 23 23 23 23 24 24 25 25 26 26 25 25 24 23 21 20 19 18 17 16 16 15 14 13
13 12 10 8 7 8 10 12 13 14 14 15 15 15 15 15 15 16 17 18 17 17 17 19 19 19 20 21 22 24 26 27 27 26 24 22 20 19 18 17 17 18 18 18 19 19 19 19 19 19 18 16 16 16 16 16 18 20 21 22 23 22 22 22 22 23 23 23 23 23 23 23 23 23 22 22 20 19 18 17 16 16 15 14 14
15 16 16 15 13 12 14 17 17 17 16 16 15 15 15 15 16 16 16 16 16 16 16 18 19 21 22 23 23 23 24 25 25 25 23 22 20 19 17 17 17 18 18 19 20 20 19 20 20 20 18 17 16 16 15 16 17 18 19 20 21 21 21 21 22 21 21 20 20 20 21 21 21 21 22 22 20 19 18 17 17 15 15 15 15
16 16 17 17 17 17 18 20 20 18 17 16 15 14 14 14 15 16 16 15 15 16 17 19 20 21 22 23 24 25 25 26 26 26 25 23 20 18 17 17 18 19 19 20 20 20 21 21 21 21 21 20 18 17 16 16 16 16 17 18 19 19 20 19 19 19 18 18 18 18 19 20 19 20 21 21 20 19 19 18 16 16 16 16 16
16 17 17 17 18 18 19 20 20 19 17 16 14 13 13 14 15 16 16 15 15 16 18 19 21 21 21 22 22 23 23 24 25 25 24 22 19 18 18 19 20 20 20 21 22 22 21 21 21 22 22 21 20 19 17 17 16 16 17 17 18 18 18 18 18 18 19 19 18 18 18 18 18 19 20 20 20 20 19 17 16 16 17 17 16
15 16 16 16 17 17 18 19 19 18 17 16 14 13 13 13 14 14 14 15 16 17 18 20 21 21 21 21 21 21 21 21 22 22 21 20 19 19 20 20 21 21 21 22 22 22 21 21 21 21 21 21 21 20 19 19 19 19 18 18 18 18 18 19 19 19 20 20 19 18 18 18 19 20 21 21 21 20 18 16 16 16 16 15 16
13 13 13 13 14 15 16 17 17 17 17 16 14 13 13 13 13 13 13 13 15 16 17 19 20 21 21 20 20 20 19 19 19 19 19 19 20 21 21 21 21 21 21 22 21 21 21 21 20 20 20 21 21 21 21 22 22 22 22 21 21 20 20 20 20 21 22 22 21 20 19 19 20 21 21 21 21 19 17 16 16 15 15 15 15
12 12 11 12 12 12 13 13 14 14 13 12 12 12 13 13 13 12 11 12 14 15 16 17 18 20 20 20 19 18 18 18 18 19 20 21 21 21 21 20 20 19 18 18 18 18 18 19 19 18 19 19 20 20 21 22 22 22 23 23 23 22 22 22 22 22 24 24 23 22 21 20 20 21 21 20 20 18 17 16 16 15 14 15 15
11 11 11 11 11 11 11 12 12 12 11 10 12 13 13 12 12 10 9 10 12 14 15 16 17 18 19 19 18 17 17 18 19 20 20 21 20 20 19 18 17 16 15 15 15 15 15 16 16 16 16 17 17 17 18 18 19 19 20 20 21 22 24 25 25 25 26 26 26 24 23 21 21 22 22 21 20 19 17 16 16 15 15 16 15
10 10 10 10 11 11 11 11 11 11 11 12 13 13 11 11 10 9 9 9 11 12 13 14 14 15 16 17 17 17 17 17 18 19 20 20 20 19 18 16 16 15 15 15 15 15 15 15 14 14 14 14 14 15 15 15 15 15 15 16 18 20 22 25 26 26 27 28 28 27 25 23 23 23 23 22 21 19 18 17 17 17 17 16 15
Wind_Direction
236 235 235 232 226 222 223 223 226 229 232 235 237 239 238 234 231 231 231 230 225 221 221 221 222 225 223 221 225 231 237 244 248 251 256 261 264 262 259 257 255 247 236 228 222 217 214 210 208 206 204 205 208 208 210 210 213 217 219 220 217 216 219 218 224 236 240 240 244 249 259 271 283 293 301 307 315 324 330 335 336 337 345 351 351
237 235 233 230 227 223 222 223 225 227 231 234 236 238 238 234 230 230 231 230 225 220 219 219 221 223 221 220 223 228 235 241 244 248 253 259 262 260 259 259 252 239 228 221 216 212 209 205 203 203 202 205 208 206 207 207 208 210 209 209 210 209 212 214 220 231 236 238 242 250 263 275 286 295 300 307 317 328 338 343 341 342 351 358 358
237 234 230 228 226 224 222 223 225 227 229 232 235 237 237 233 229 229 230 229 224 219 218 217 220 223 221 219 220 225 233 237 240 246 251 257 259 259 261 258 245 230 221 216 211 207 204 202 201 202 202 204 206 207 207 206 207 208 204 203 204 201 199 203 210 221 228 234 240 252 266 277 284 293 301 311 323 335 347 352 350 353 1 9 10
236 232 228 227 226 223 222 222 225 227 228 230 233 236 236 232 227 227 229 227 222 217 216 216 219 223 222 218 219 224 231 234 238 243 249 255 257 259 261 253 234 220 214 210 207 203 201 201 201 201 201 202 202 204 205 206 208 207 203 200 198 195 196 201 207 214 223 231 241 253 267 277 283 291 301 315 328 340 351 0 4 5 10 16 19
233 228 226 226 225 223 223 222 225 228 228 228 231 234 235 231 226 226 227 224 219 215 214 215 218 222 222 218 218 224 230 236 239 240 246 254 255 257 256 241 223 213 209 206 202 200 199 199 199 199 200 200 201 200 201 203 206 206 202 197 195 197 201 205 208 213 221 232 244 256 267 276 282 289 300 315 331 345 355 5 15 17 16 18 19
230 226 225 224 223 223 223 223 225 228 228 227 230 232 233 230 225 225 225 221 217 214 213 214 216 220 221 218 218 223 230 238 241 238 243 251 252 253 247 229 215 209 208 204 199 197 197 197 196 197 197 198 199 200 199 201 205 205 201 195 194 199 202 205 210 215 222 234 247 260 268 272 278 286 300 317 335 353 5 16 20 19 19 20 17
229 227 224 221 222 224 225 225 225 227 228 227 228 231 231 229 224 224 224 219 214 213 213 214 216 219 219 216 216 222 231 238 237 233 240 248 250 250 239 221 211 207 205 203 199 197 196 195 195 195 197 199 200 200 201 204 207 206 200 196 197 202 204 205 212 218 226 239 251 262 266 270 274 282 300 321 341 353 3 17 21 17 15 16 14
227 224 220 221 225 227 227 227 225 226 228 227 228 230 230 227 223 223 223 217 213 212 212 214 217 219 218 215 216 224 232 236 232 228 236 245 248 246 232 216 211 208 205 201 200 199 197 196 196 196 199 201 203 204 206 210 212 207 200 198 199 203 205 208 215 222 231 246 256 260 262 264 269 279 301 327 344 350 357 9 15 12 11 9 8
224 221 221 225 228 226 224 225 224 225 228 227 227 229 229 225 221 221 221 216 212 212 214 218 220 218 214 212 215 225 233 235 230 228 235 242 245 241 225 213 211 210 206 203 201 200 199 198 198 199 202 205 208 209 209 212 213 207 202 203 205 207 208 212 219 226 238 250 256 258 256 254 260 274 297 319 331 340 355 7 9 5 4 4 2
221 220 224 228 228 222 220 223 225 226 227 225 225 227 227 223 219 217 216 214 212 213 214 218 221 219 214 211 216 226 232 235 230 228 234 240 242 235 220 210 210 210 208 206 203 202 202 201 201 203 206 209 211 209 209 212 213 208 203 204 209 212 212 217 223 229 241 250 253 253 247 245 256 270 284 300 321 347 359 3 2 358 357 358 356
217 220 226 228 224 215 215 223 226 226 225 223 224 225 225 221 216 211 211 212 215 217 216 217 219 218 213 213 219 225 230 234 230 226 231 237 237 228 215 209 209 209 207 206 205 204 204 203 205 207 208 211 212 209 209 212 215 212 206 203 208 212 213 218 223 231 242 248 250 247 240 244 258 271 283 299 322 347 353 353 352 353 354 352 349
215 220 224 223 217 212 216 224 225 223 222 222 223 223 223 220 213 208 208 211 216 219 218 218 218 216 212 213 218 223 229 234 229 224 228 234 232 222 212 209 210 209 206 205 204 205 206 207 209 210 212 214 214 211 211 213 215 213 211 211 213 214 215 219 223 230 240 245 249 247 243 247 258 269 279 289 299 318 339 346 343 345 348 346 345
217 219 219 218 216 216 221 224 222 220 220 221 222 221 221 220 213 207 208 211 213 214 217 219 219 215 212 213 215 218 226 230 224 220 224 229 228 218 210 207 209 208 206 205 203 204 206 208 210 212 215 216 216 214 213 215 215 212 211 215 217 217 218 222 226 232 238 242 244 245 248 251 254 263 275 276 272 292 315 327 331 335 339 339 338
218 216 216 218 219 220 222 222 221 220 219 220 220 220 220 220 214 208 210 214 213 211 213 217 218 215 213 213 212 214 223 227 221 217 221 225 224 217 210 206 206 206 205 206 205 205 205 207 211 215 218 220 219 216 215 216 215 213 213 216 218 218 220 223 228 234 241 244 242 243 250 253 251 259 270 270 264 273 289 306 319 325 328 329 330
217 215 216 218 219 218 219 218 219 219 218 218 219 218 219 219 215 209 211 217 217 212 212 216 217 216 215 213 211 213 219 223 218 214 217 223 221 216 211 206 203 202 203 205 205 204 204 207 212 217 219 220 218 218 219 218 215 213 215 217 219 220 222 225 229 233 240 244 241 241 246 250 252 257 262 261 257 268 285 297 308 314 321 326 330
214 213 213 215 215 216 216 216 215 215 215 216 217 217 217 217 216 212 213 219 220 214 212 218 218 216 214 211 208 211 215 216 215 213 212 217 220 216 211 207 203 202 203 204 203 202 203 208 213 216 216 216 214 215 218 219 216 214 214 217 220 222 224 226 229 233 239 242 240 241 245 249 253 255 256 255 251 263 284 297 306 312 319 325 326
212 211 212 213 214 215 215 214 213 214 215 215 215 216 216 216 217 215 215 222 223 214 210 216 218 217 216 211 206 207 210 212 213 211 209 212 216 215 211 209 206 205 205 204 202 201 205 210 213 214 214 212 211 212 213 215 215 214 214 217 221 224 224 226 228 233 240 241 240 242 244 248 254 253 253 253 249 258 280 295 304 309 316 321 320
212 211 213 214 214 214 214 214 214 214 215 215 215 215 216 218 219 219 221 226 225 216 210 213 217 217 218 215 208 204 207 210 211 209 208 209 212 212 211 210 209 208 206 205 203 205 209 213 212 213 212 210 209 210 211 212 214 215 217 220 222 225 226 226 228 233 238 241 240 241 243 246 251 251 251 252 249 255 272 287 297 305 313 318 316
212 212 213 214 213 214 214 214 215 216 216 216 216 216 218 218 217 220 226 229 225 218 213 214 217 219 219 216 212 207 206 207 207 207 205 204 205 207 209 210 211 209 206 204 204 206 211 213 211 212 211 207 208 211 211 211 213 216 220 224 225 226 227 227 230 233 238 242 242 241 243 245 247 249 249 250 251 256 267 282 296 306 313 317 318
215 213 212 213 212 213 214 215 217 219 219 218 218 219 220 219 216 218 224 226 227 225 220 216 217 221 221 215 210 207 206 204 205 205 202 200 202 206 210 211 211 209 206 204 205 208 213 214 211 211 210 207 210 213 212 212 214 216 220 224 225 227 228 229 231 233 237 242 242 241 242 243 245 246 245 246 250 254 263 278 294 306 313 316 319
216 213 211 212 213 214 216 218 219 220 220 220 219 220 220 219 218 218 218 219 226 231 226 220 218 221 224 219 211 206 204 203 204 205 202 200 203 207 211 213 211 209 207 205 206 212 216 215 211 210 210 209 211 212 210 210 213 215 218 221 222 224 227 229 231 232 235 239 241 241 242 242 244 244 243 244 246 248 259 276 289 300 309 314 316
215 213 212 212 214 214 216 219 221 220 220 219 220 221 221 217 216 218 220 221 226 230 228 223 220 220 222 220 213 206 203 201 203 206 205 203 204 208 212 214 214 213 208 204 206 212 215 215 214 212 211 211 211 210 210 209 210 212 213 216 219 223 227 229 229 231 233 236 237 239 240 240 241 242 242 245 247 249 260 272 279 291 304 311 313
213 213 213 212 213 214 216 219 220 219 219 219 219 220 219 217 216 223 229 229 229 230 227 222 218 218 220 218 212 207 204 201 202 207 208 206 206 208 210 212 214 213 207 204 206 211 211 212 214 212 211 212 212 211 212 211 211 211 210 212 219 226 229 228 227 229 232 233 234 236 239 239 239 241 243 245 248 253 261 266 273 286 299 308 311
212 210 211 211 212 215 218 221 221 220 220 221 220 218 216 216 218 225 231 230 227 228 226 219 214 217 220 218 213 208 204 202 204 207 210 209 208 208 208 207 206 206 206 205 205 206 207 210 212 209 209 212 214 215 218 218 216 213 211 214 221 228 231 230 229 230 233 235 236 237 239 241 241 242 243 243 245 253 262 265 270 284 297 305 310
209 208 210 212 212 214 217 220 220 220 220 220 220 219 217 218 220 223 227 227 224 224 222 217 215 219 221 221 218 211 205 204 206 207 209 210 211 211 208 205 202 202 205 205 203 200 198 204 210 208 206 209 213 216 220 221 218 215 214 219 224 229 232 232 231 233 235 237 240 241 242 244 246 243 241 241 249 262 272 271 271 284 298 306 310
207 208 210 212 213 214 216 217 217 217 218 219 220 221 220 221 222 222 224 225 223 221 219 218 219 222 222 220 218 212 207 206 207 208 209 209 211 211 208 204 202 202 203 203 201 196 194 200 207 208 206 208 212 216 219 220 217 215 216 220 225 229 231 230 231 235 237 239 242 243 242 243 245 242 240 246 258 270 276 274 274 284 298 306 311
210 212 212 211 212 214 215 216 215 216 216 217 219 221 223 226 227 223 221 223 222 219 218 219 222 223 221 219 216 211 208 208 208 208 208 209 208 207 206 204 202 200 200 200 199 198 198 201 204 206 209 212 215 218 219 218 217 217 219 222 225 228 231 231 232 234 236 238 242 243 240 239 239 239 243 252 263 271 274 273 274 282 296 306 310
217 217 215 213 214 215 216 217 217 217 217 217 219 221 223 227 229 225 220 222 226 224 221 222 225 225 223 220 216 211 209 210 211 209 208 210 209 207 204 203 201 200 200 200 199 198 201 204 205 206 209 214 217 218 217 216 216 219 222 225 227 228 230 232 231 232 234 237 240 241 240 238 237 240 246 255 264 270 271 269 271 280 294 303 307
222 221 217 215 217 217 217 219 219 217 217 218 219 223 225 226 230 227 221 223 236 239 236 234 231 228 223 219 215 212 211 211 211 210 209 210 211 211 209 205 202 202 204 203 200 200 203 206 208 209 211 215 218 218 216 215 216 219 222 224 225 227 230 231 230 230 234 238 240 239 238 236 237 241 248 257 265 267 265 266 273 282 293 301 303
223 222 219 218 219 218 218 220 219 219 220 221 223 227 229 230 232 233 229 229 236 242 246 247 240 231 226 222 218 215 213 209 206 208 210 211 213 217 217 212 207 206 206 204 203 205 208 211 212 213 215 218 221 220 218 217 216 219 223 225 225 227 231 232 231 233 235 238 239 238 236 236 239 243 250 259 264 262 262 269 278 285 292 299 300
221 222 222 223 224 222 220 220 221 222 226 229 229 227 226 227 228 230 230 230 231 234 240 243 237 231 231 228 219 215 215 209 203 204 206 207 212 217 216 212 210 209 208 207 206 209 212 215 218 219 220 222 225 224 223 221 219 220 224 228 230 232 234 235 235 236 238 239 239 239 237 238 241 244 251 259 263 260 264 272 278 284 292 297 298
223 224 224 225 226 224 221 222 226 228 229 229 227 224 223 222 222 222 223 224 227 231 234 230 226 228 233 228 217 211 210 207 204 204 204 206 210 214 211 208 207 209 210 211 213 215 217 219 221 223 223 226 228 228 228 226 224 222 224 227 230 232 235 237 239 240 241 241 240 242 243 243 244 246 251 258 261 260 264 272 276 281 289 295 299
233 233 231 228 227 226 225 227 231 232 231 229 226 223 223 223 221 219 219 217 217 223 225 221 218 220 218 214 211 208 205 203 202 203 205 206 207 207 206 205 206 209 211 213 217 220 221 222 224 226 226 228 230 230 231 231 228 226 226 227 229 233 235 237 240 241 242 242 241 244 248 247 246 247 250 256 259 260 264 269 272 279 287 292 296
241 240 238 235 234 233 232 231 232 231 231 230 228 225 223 223 222 221 217 210 206 209 211 210 210 210 202 196 196 195 193 193 192 194 197 198 196 196 199 203 207 210 213 216 220 222 222 224 226 228 229 230 230 231 233 233 231 230 229 230 232 234 234 234 237 239 240 240 240 243 248 250 248 247 248 252 256 259 263 266 268 277 286 287 289
242 243 243 242 243 242 238 234 232 230 228 227 227 226 223 221 221 222 218 210 201 198 199 199 199 199 193 185 180 177 174 175 181 186 192 193 192 191 194 199 204 207 210 215 220 223 224 225 226 227 228 229 230 231 234 235 232 231 231 231 232 232 231 231 233 235 236 237 238 242 248 251 250 248 247 249 252 256 261 264 267 275 283 283 284
240 244 245 244 243 242 237 231 228 228 226 224 223 221 218 217 218 216 213 205 195 189 187 187 189 190 185 177 174 174 172 176 183 188 193 195 195 195 199 203 206 208 209 213 218 221 223 225 226 226 227 229 231 233 237 238 235 232 231 230 230 229 228 228 229 230 233 235 237 242 248 251 250 248 246 247 250 254 258 262 266 274 281 280 280
250 254 253 248 244 241 235 227 222 222 222 221 219 216 213 212 212 208 202 196 187 182 181 182 183 183 180 176 175 177 179 182 187 189 193 197 200 204 207 209 211 212 213 217 221 223 224 225 226 225 225 227 230 234 238 239 235 231 230 229 228 228 227 225 225 228 231 234 237 241 244 246 247 247 246 246 248 252 256 261 266 272 276 277 278
254 257 257 252 243 237 231 224 219 217 218 217 216 214 210 208 205 200 192 184 181 180 181 182 184 184 182 179 179 182 185 187 188 190 193 197 201 205 209 212 213 215 219 223 227 227 228 229 228 227 227 229 233 236 239 238 235 233 231 230 230 230 227 224 224 225 229 234 238 241 242 243 244 245 245 244 246 249 254 259 264 268 271 272 274
248 249 247 244 237 232 229 225 218 213 211 210 209 207 204 200 195 188 180 177 179 181 183 185 188 190 189 186 185 185 189 192 193 194 196 198 202 208 212 213 215 217 220 224 227 227 229 231 230 229 231 232 235 237 238 237 235 234 233 232 231 230 227 224 224 225 229 234 239 241 242 242 243 244 243 241 242 247 253 256 260 263 265 267 269
233 233 233 235 234 231 229 226 218 209 205 203 202 200 199 194 186 178 175 175 178 181 185 190 193 195 194 194 193 193 196 200 202 201 201 204 207 210 212 215 219 221 222 223 223 223 225 227 227 227 228 228 230 232 233 233 231 230 229 228 228 228 228 227 226 227 230 233 237 239 241 241 242 241 240 238 240 246 250 252 255 258 259 261 263
163 191 204 218 225 225 221 215 207 199 196 195 193 190 189 185 179 174 172 172 173 175 179 186 193 196 197 198 200 202 205 207 207 206 207 210 212 214 215 219 225 227 225 223 222 221 222 222 222 222 221 221 223 225 225 226 225 224 223 223 224 225 227 228 228 230 232 233 235 238 239 239 239 239 237 236 238 242 246 247 249 253 257 258 256
81 92 107 155 189 200 202 196 186 178 176 176 173 172 173 173 170 168 167 167 170 174 176 179 184 190 194 197 201 205 209 209 208 207 208 210 213 216 218 221 225 225 222 220 218 218 218 218 217 216 215 215 218 221 222 222 222 221 221 222 223 225 227 228 230 231 233 234 235 237 237 237 237 236 234 233 235 239 243 243 244 249 254 254 251
89 95 100 113 132 147 153 151 144 140 141 143 144 147 152 155 158 162 165 166 168 171 176 178 179 181 183 187 194 200 205 207 206 207 208 208 210 213 215 218 221 220 216 213 212 213 214 213 210 208 208 210 212 216 218 220 221 221 222 224 226 227 228 229 230 231 232 233 234 234 234 235 235 234 232 231 233 237 239 239 241 247 251 250 251
104 105 107 112 119 128 128 122 118 118 121 124 128 133 139 145 150 155 160 164 165 168 173 177 179 178 178 180 184 189 194 198 201 204 205 206 206 208 210 212 213 213 211 209 209 210 210 209 207 206 207 207 208 211 214 216 218 220 221 224 226 226 227 227 228 229 230 230 232 233 234 235 236 234 231 229 230 234 235 235 238 244 247 246 250
109 111 114 117 122 128 129 125 124 126 127 128 130 135 142 150 156 160 164 167 168 169 171 174 177 178 179 180 181 182 184 188 193 197 199 201 201 201 203 204 206 206 206 206 208 209 210 210 210 210 210 209 209 211 214 216 219 222 223 225 227 228 228 229 228 228 228 228 229 233 236 237 236 232 228 226 228 231 231 232 236 242 244 245 251
109 116 122 125 128 131 130 129 129 130 130 131 133 137 143 151 158 163 168 172 173 173 172 173 175 176 177 178 179 180 183 188 192 193 195 196 196 196 198 200 201 203 203 205 207 209 210 212 213 213 212 212 212 214 216 219 222 224 225 227 229 229 229 229 228 226 225 224 225 228 233 235 233 227 222 222 225 225 225 228 235 241 245 248 254
107 113 120 125 129 132 131 130 130 132 132 133 135 136 139 142 147 153 160 168 172 173 172 172 173 174 174 176 178 182 187 192 195 195 196 195 193 194 196 199 203 205 207 208 210 210 211 212 214 214 215 215 216 218 221 225 228 229 230 231 232 231 230 230 229 225 222 221 221 223 226 228 227 222 219 219 220 219 221 226 233 239 245 250 255
107 110 114 118 122 125 126 128 132 134 134 134 135 139 142 143 144 150 157 164 169 170 169 169 170 171 173 177 181 186 191 194 195 195 195 195 194 195 198 202 207 210 212 215 217 218 218 217 218 219 220 222 224 227 230 233 235 237 238 239 238 236 234 232 230 226 221 219 220 221 221 222 220 216 214 214 215 215 220 227 234 239 245 250 256
105 107 111 117 121 124 127 131 134 134 134 134 136 140 143 144 146 153 161 169 172 172 170 169 169 168 170 175 179 185 190 193 193 192 192 193 196 197 199 202 205 208 210 214 218 219 219 219 219 221 224 227 229 233 235 238 241 244 246 248 247 244 240 236 233 227 222 220 221 222 221 220 217 213 209 210 213 217 223 231 238 243 246 250 257
102 104 106 111 118 125 131 134 134 133 135 140 142 142 141 141 143 149 159 172 178 176 173 173 173 174 175 179 182 186 190 192 191 191 190 190 191 192 192 193 196 198 201 205 208 209 210 213 216 220 224 229 233 237 240 244 247 249 252 254 253 250 246 243 238 232 225 223 223 223 222 220 217 213 211 213 217 222 228 236 243 247 249 252 259
104 106 107 106 110 116 122 128 134 139 141 142 142 141 140 139 140 143 149 159 165 168 169 172 175 178 182 183 183 185 188 187 185 184 183 182 183 185 188 190 193 196 201 206 209 209 211 216 221 226 230 234 238 241 244 245 245 246 247 248 248 248 247 245 243 238 233 228 226 225 225 223 221 218 217 219 223 228 234 241 247 250 251 254 259